Pontiac, MI

1:25 AM EDT on July 21, 2017 (GMT -0400)
Oakland County International

Weather History for KPTK - November, 2012

Change the Weather History Date:

Thursday, November 8, 2012

  Actual Average Record
Temperature  
Mean Temperature 37 °F -  
Max Temperature 48 °F 47 °F 64 °F (2011)
Min Temperature 26 °F 32 °F 21 °F (2003)
Degree Days  
Heating Degree Days 28    
Moisture  
Dew Point 28 °F    
Average Humidity 73    
Maximum Humidity 92    
Minimum Humidity 48    
Precipitation  
Precipitation 0.00 in - - ()
Sea Level Pressure  
Sea Level Pressure 30.18 in    
Wind  
Wind Speed 1 mph (ENE)    
Max Wind Speed 4 mph    
Max Gust Speed -    
Visibility 9 miles    
Events      
Averages and records for this station are not official NWS values.
T = Trace of Precipitation, MM = Missing Value Source: NWS Daily Summary

Daily Weather History Graph

Daily Weather History Graph

Search for Another Location

Airport or City:

Trip Planner

Search our weather history database for the weather conditions in past years. The results will help you decide how hot, cold, wet, or windy it might be!

Date:

Astronomy

Nov. 08, 2012 Rise Set
Actual Time 7:17 AM EST 5:17 PM EST
Civil Twilight 6:47 AM EST 5:47 PM EST
Nautical Twilight 6:13 AM EST 6:21 PM EST
Astronomical Twilight 5:40 AM EST 6:54 PM EST
Moon 1:03 AM EST (11/8) 2:04 PM EST (11/8)
Length of Visible Light 11h 00m
Length of Day
10h 00m
Waning Crescent, 33% of the Moon is Illuminated
Nov 8
Waning Crescent
Nov 13
New
Nov 20
First Quarter
Nov 28
Full
Dec 6
Last Quarter

Hourly Weather History & Observations

Time (EST) Temp. Windchill Dew Point Humidity Pressure Visibility Wind Dir Wind Speed Gust Speed Precip Events Conditions
12:53 AM 30.0 °F - 26.1 °F 85% 30.16 in 8.0 mi Calm Calm - N/A   Clear
1:53 AM 28.0 °F - 25.0 °F 88% 30.16 in 8.0 mi Calm Calm - N/A   Clear
2:53 AM 28.0 °F - 24.1 °F 85% 30.15 in 9.0 mi Calm Calm - N/A   Clear
3:53 AM 27.0 °F - 25.0 °F 92% 30.17 in 8.0 mi Calm Calm - N/A   Clear
4:53 AM 26.1 °F - 24.1 °F 92% 30.18 in 8.0 mi Calm Calm - N/A   Clear
5:53 AM 27.0 °F - 24.1 °F 89% 30.19 in 7.0 mi Calm Calm - N/A   Partly Cloudy
6:53 AM 27.0 °F - 23.0 °F 85% 30.21 in 8.0 mi Calm Calm - N/A   Partly Cloudy
7:53 AM 27.0 °F - 25.0 °F 92% 30.22 in 6.0 mi Calm Calm - N/A   Clear
8:53 AM 34.0 °F 31.0 °F 28.9 °F 82% 30.24 in 8.0 mi NNE 3.5 mph - N/A   Clear
9:53 AM 39.0 °F 36.8 °F 28.9 °F 67% 30.23 in 10.0 mi NE 3.5 mph - N/A   Partly Cloudy
10:53 AM 41.0 °F 39.0 °F 28.0 °F 60% 30.23 in 10.0 mi NE 3.5 mph - N/A   Partly Cloudy
11:53 AM 43.0 °F - 28.9 °F 58% 30.21 in 10.0 mi Calm Calm - N/A   Partly Cloudy
12:53 PM 44.1 °F - 30.0 °F 58% 30.18 in 10.0 mi Calm Calm - N/A   Partly Cloudy
1:53 PM 45.0 °F - 28.9 °F 53% 30.17 in 10.0 mi Calm Calm - N/A   Scattered Clouds
2:53 PM 46.9 °F - 28.9 °F 50% 30.16 in 10.0 mi Variable 3.5 mph - N/A   Mostly Cloudy
3:53 PM 48.0 °F - 28.9 °F 48% 30.16 in 10.0 mi Calm Calm - N/A   Mostly Cloudy
4:53 PM 46.0 °F - 28.9 °F 51% 30.16 in 10.0 mi Calm Calm - N/A   Mostly Cloudy
5:53 PM 43.0 °F - 28.9 °F 58% 30.16 in 10.0 mi Calm Calm - N/A   Mostly Cloudy
6:53 PM 39.0 °F - 28.9 °F 67% 30.17 in 10.0 mi Calm Calm - N/A   Mostly Cloudy
7:53 PM 37.9 °F 35.5 °F 30.0 °F 73% 30.16 in 10.0 mi SE 3.5 mph - N/A   Scattered Clouds
8:53 PM 37.0 °F 34.5 °F 30.0 °F 76% 30.15 in 10.0 mi South 3.5 mph - N/A   Clear
9:53 PM 36.0 °F - 30.0 °F 79% 30.15 in 10.0 mi Calm Calm - N/A   Clear
10:53 PM 33.1 °F - 30.0 °F 89% 30.15 in 8.0 mi Calm Calm - N/A   Clear
11:53 PM 33.1 °F - 28.0 °F 82% 30.15 in 8.0 mi Calm Calm - N/A   Clear